Location: ???? ?????????
(44.3677°N, 135.2344°E)
Time: 03:34:06
(UTC+00:00)

Cosmos 2297 Rocket - Pass Details

Date: 19 May 2025
Orbit: 837 x 844 km, 71.0° (Epoch: 14 June)

Event Time Altitude Azimuth Distance (km) Brightness Sun altitude
Exits shadow 15:57:16 22° 125° (SE) 1,767 3.7 -24.2°
Maximum altitude 15:58:43 24° 102° (ESE) 1,665 3.7 -24.1°
Drops below altitude 10° 16:03:10 10° 50° (NE) 2,469 5.4 -23.9°
Sets 16:06:02 0° 37° (NE) 3,409 6.6 -23.7°
